Time,TemperatureF,DewpointF,PressureIn,WindDirection,WindDirectionDegrees,WindSpeedMPH,WindSpeedGustMPH,Humidity,HourlyPrecipIn,Conditions,Clouds,dailyrainin,SolarRadiationWatts/m^2,SoftwareType,DateUTC
2015-08-31 00:01:00,72.6,66.8,29.97,WSW,248,0.0,0.0,82,0.00,CLR,,0.00,0.0,WeatherDisplay:10.37,2015-08-31 04:01:00,
2015-08-31 00:06:00,72.5,67.0,29.97,WSW,248,0.0,0.0,83,0.00,CLR,,0.00,0.0,WeatherDisplay:10.37,2015-08-31 04:06:00,
2015-08-31 00:11:00,72.3,66.8,29.97,WSW,248,0.0,0.0,83,0.00,CLR,,0.00,0.0,WeatherDisplay:10.37,2015-08-31 04:11:00,
2015-08-31 00:16:00,72.1,67.0,29.97,WSW,248,0.0,3.5,84,0.00,CLR,,0.00,0.0,WeatherDisplay:10.37,2015-08-31 04:16:00,
2015-08-31 00:21:00,71.9,67.1,29.97,WSW,245,1.1,3.5,85,0.00,CLR,,0.00,0.0,WeatherDisplay:10.37,2015-08-31 04:21:00,
2015-08-31 00:26:00,71.7,66.9,29.97,WSW,241,2.6,4.6,85,0.00,CLR,,0.00,0.0,WeatherDisplay:10.37,2015-08-31 04:26:00,
2015-08-31 00:31:00,71.6,67.2,29.97,WSW,241,0.0,1.2,86,0.00,CLR,,0.00,0.0,WeatherDisplay:10.37,2015-08-31 04:31:00,
2015-08-31 00:36:00,71.5,67.1,29.97,WSW,241,0.0,0.0,86,0.00,CLR,,0.00,0.0,WeatherDisplay:10.37,2015-08-31 04:36:00,
2015-08-31 00:41:00,71.4,67.3,29.97,WSW,239,1.9,4.0,87,0.00,CLR,,0.00,0.0,WeatherDisplay:10.37,2015-08-31 04:41:00,
2015-08-31 00:46:00,71.3,67.2,29.97,WSW,238,1.7,4.6,87,0.00,CLR,,0.00,0.0,WeatherDisplay:10.37,2015-08-31 04:46:00,
2015-08-31 00:51:00,71.3,67.2,29.97,WSW,241,0.0,3.5,87,0.00,CLR,,0.00,0.0,WeatherDisplay:10.37,2015-08-31 04:51:00,
2015-08-31 00:56:00,71.3,67.6,29.97,WSW,240,0.0,1.2,88,0.00,CLR,,0.00,0.0,WeatherDisplay:10.37,2015-08-31 04:56:00,
2015-08-31 01:01:00,71.3,67.6,29.96,WSW,248,0.3,3.5,88,0.00,CLR,,0.00,0.0,WeatherDisplay:10.37,2015-08-31 05:01:00,
2015-08-31 01:06:00,71.3,67.6,29.96,WSW,247,0.0,0.0,88,0.00,CLR,,0.00,0.0,WeatherDisplay:10.37,2015-08-31 05:06:00,
2015-08-31 01:11:00,71.2,67.5,29.96,WSW,246,0.0,0.0,88,0.00,CLR,,0.00,0.0,WeatherDisplay:10.37,2015-08-31 05:11:00,
2015-08-31 01:16:00,71.1,67.4,29.95,WSW,255,1.0,3.5,88,0.00,CLR,,0.00,0.0,WeatherDisplay:10.37,2015-08-31 05:16:00,
2015-08-31 01:21:00,71.1,67.7,29.95,West,268,1.0,5.8,89,0.00,CLR,,0.00,0.0,WeatherDisplay:10.37,2015-08-31 05:21:00,
2015-08-31 01:26:00,71.0,67.6,29.95,West,271,0.0,1.0,89,0.00,CLR,,0.00,0.0,WeatherDisplay:10.37,2015-08-31 05:26:00,
2015-08-31 01:31:00,70.9,67.5,29.95,West,267,2.6,0.0,89,0.00,CLR,,0.00,0.0,WeatherDisplay:10.37,2015-08-31 05:31:00,
2015-08-31 01:36:00,70.8,67.4,29.95,West,269,0.0,0.0,89,0.00,CLR,,0.00,0.0,WeatherDisplay:10.37,2015-08-31 05:36:00,
2015-08-31 01:41:00,70.7,67.3,29.95,West,261,3.1,4.6,89,0.00,CLR,,0.00,0.0,WeatherDisplay:10.37,2015-08-31 05:41:00,
2015-08-31 01:46:00,70.6,67.2,29.95,West,261,0.6,0.0,89,0.00,CLR,,0.00,0.0,WeatherDisplay:10.37,2015-08-31 05:46:00,
2015-08-31 01:51:00,70.5,67.1,29.95,West,262,0.0,0.0,89,0.00,CLR,,0.00,0.0,WeatherDisplay:10.37,2015-08-31 05:51:00,
2015-08-31 01:56:00,70.4,67.3,29.95,West,263,0.0,0.0,90,0.00,CLR,,0.00,0.0,WeatherDisplay:10.37,2015-08-31 05:56:00,
2015-08-31 02:01:00,70.3,67.2,29.95,West,262,0.0,0.0,90,0.00,CLR,,0.00,0.0,WeatherDisplay:10.37,2015-08-31 06:01:00,
2015-08-31 02:06:00,70.3,67.2,29.95,West,264,0.0,0.0,90,0.00,CLR,,0.00,0.0,WeatherDisplay:10.37,2015-08-31 06:06:00,
2015-08-31 02:11:00,70.2,67.1,29.95,West,266,2.5,2.5,90,0.00,CLR,,0.00,0.0,WeatherDisplay:10.37,2015-08-31 06:11:00,
2015-08-31 02:16:00,70.1,67.0,29.95,West,263,0.0,5.8,90,0.00,CLR,,0.00,0.0,WeatherDisplay:10.37,2015-08-31 06:16:00,
2015-08-31 02:21:00,70.0,66.9,29.95,WSW,257,0.1,3.5,90,0.00,CLR,,0.00,0.0,WeatherDisplay:10.37,2015-08-31 06:21:00,
2015-08-31 02:26:00,70.0,66.9,29.95,West,265,3.2,5.0,90,0.00,CLR,,0.00,0.0,WeatherDisplay:10.37,2015-08-31 06:26:00,
2015-08-31 02:31:00,69.9,66.8,29.94,West,267,0.0,3.5,90,0.00,CLR,,0.00,0.0,WeatherDisplay:10.37,2015-08-31 06:31:00,
2015-08-31 02:36:00,69.9,66.8,29.94,West,277,0.1,3.5,90,0.00,CLR,,0.00,0.0,WeatherDisplay:10.37,2015-08-31 06:36:00,
2015-08-31 02:41:00,69.8,66.7,29.94,West,265,0.0,6.9,90,0.00,CLR,,0.00,0.0,WeatherDisplay:10.37,2015-08-31 06:41:00,
2015-08-31 02:46:00,69.8,66.7,29.94,West,262,0.1,3.5,90,0.00,CLR,,0.00,0.0,WeatherDisplay:10.37,2015-08-31 06:46:00,
2015-08-31 02:51:00,69.8,67.1,29.94,SW,227,0.0,0.0,91,0.00,CLR,,0.00,0.0,WeatherDisplay:10.37,2015-08-31 06:51:00,
2015-08-31 02:56:00,69.7,67.0,29.94,WSW,255,2.5,2.5,91,0.00,CLR,,0.00,0.0,WeatherDisplay:10.37,2015-08-31 06:56:00,
2015-08-31 03:01:00,69.7,67.0,29.94,WSW,253,0.0,4.6,91,0.00,CLR,,0.00,0.0,WeatherDisplay:10.37,2015-08-31 07:01:00,
2015-08-31 03:06:00,69.6,66.9,29.94,SW,235,3.0,6.9,91,0.00,CLR,,0.00,0.0,WeatherDisplay:10.37,2015-08-31 07:06:00,
2015-08-31 03:11:00,69.6,66.9,29.94,WSW,238,0.8,5.8,91,0.00,CLR,,0.00,0.0,WeatherDisplay:10.37,2015-08-31 07:11:00,
2015-08-31 03:16:00,69.6,66.9,29.94,WSW,254,0.9,3.5,91,0.00,CLR,,0.00,0.0,WeatherDisplay:10.37,2015-08-31 07:16:00,
2015-08-31 03:21:00,69.6,66.9,29.94,West,270,2.2,5.8,91,0.00,CLR,,0.00,0.0,WeatherDisplay:10.37,2015-08-31 07:21:00,
2015-08-31 03:26:00,69.6,66.9,29.94,West,269,0.0,0.0,91,0.00,CLR,,0.00,0.0,WeatherDisplay:10.37,2015-08-31 07:26:00,
2015-08-31 03:31:00,69.6,66.9,29.93,West,274,0.0,6.9,91,0.00,CLR,,0.00,0.0,WeatherDisplay:10.37,2015-08-31 07:31:00,
2015-08-31 03:36:00,69.6,66.9,29.93,West,274,0.0,0.0,91,0.00,CLR,,0.00,0.0,WeatherDisplay:10.37,2015-08-31 07:36:00,
2015-08-31 03:41:00,69.5,66.8,29.93,WNW,284,4.5,6.9,91,0.00,CLR,,0.00,0.0,WeatherDisplay:10.37,2015-08-31 07:41:00,
2015-08-31 03:46:00,69.5,66.4,29.93,West,267,0.7,4.6,90,0.00,CLR,,0.00,0.0,WeatherDisplay:10.37,2015-08-31 07:46:00,
2015-08-31 03:51:00,69.5,66.8,29.93,WSW,254,0.0,3.5,91,0.00,CLR,,0.00,0.0,WeatherDisplay:10.37,2015-08-31 07:51:00,
2015-08-31 03:56:00,69.4,66.7,29.93,WSW,251,0.1,1.2,91,0.00,CLR,,0.00,0.0,WeatherDisplay:10.37,2015-08-31 07:56:00,
2015-08-31 04:01:00,69.4,66.7,29.93,West,267,1.5,5.0,91,0.00,CLR,,0.00,0.0,WeatherDisplay:10.37,2015-08-31 08:01:00,
2015-08-31 04:06:00,69.4,66.7,29.93,WSW,256,0.1,8.1,91,0.00,CLR,,0.00,0.0,WeatherDisplay:10.37,2015-08-31 08:06:00,
2015-08-31 04:11:00,69.3,66.6,29.93,WSW,257,1.3,6.0,91,0.00,CLR,,0.00,0.0,WeatherDisplay:10.37,2015-08-31 08:11:00,